Location: ??????
(55.7522°N, 37.6156°E)
Time: 17:17:25
(UTC+00:00)

Cosmos 1741 Rocket - Pass Details

Date: 14 June 2025
Orbit: 757 x 778 km, 74.0° (Epoch: 13 July)

Event Time Altitude Azimuth Distance (km) Brightness Sun altitude
Exits shadow 22:46:22 12° 200° (SSW) 2,192 5.7 -9.3°
Maximum altitude 22:51:19 78° 115° (ESE) 801 4.1 -9.1°
Drops below altitude 10° 22:56:38 10° 30° (NNE) 2,344 8.1 -8.8°
Sets 22:59:02 0° 29° (NNE) 3,275 9.4 -8.7°
